TimeEST,TemperatureF,Dew PointF,Humidity,Sea Level PressureIn,VisibilityMPH,Wind Direction,Wind SpeedMPH,Gust SpeedMPH,PrecipitationIn,Events,Conditions,WindDirDegrees,DateUTC
12:53 AM,14.0,-2.0,49,30.27,10.0,NW,9.2,-,N/A,,Clear,320,2013-02-10 05:53:00
1:53 AM,14.0,-2.0,49,30.28,10.0,NNW,11.5,-,N/A,,Clear,330,2013-02-10 06:53:00
2:53 AM,12.9,-2.9,49,30.28,10.0,NNW,6.9,-,N/A,,Clear,330,2013-02-10 07:53:00
3:53 AM,12.9,-4.0,47,30.30,10.0,NW,10.4,-,N/A,,Clear,310,2013-02-10 08:53:00
4:53 AM,14.0,-4.0,45,30.32,10.0,NW,11.5,-,N/A,,Clear,320,2013-02-10 09:53:00
5:53 AM,12.0,-4.0,49,30.35,10.0,NNW,6.9,-,N/A,,Clear,330,2013-02-10 10:53:00
6:53 AM,10.9,-5.1,49,30.38,10.0,North,3.5,-,N/A,,Clear,350,2013-02-10 11:53:00
7:53 AM,15.1,-4.0,43,30.40,10.0,North,9.2,-,N/A,,Clear,10,2013-02-10 12:53:00
8:53 AM,19.0,-5.1,34,30.42,10.0,NNW,11.5,17.3,N/A,,Clear,340,2013-02-10 13:53:00
9:53 AM,23.0,-4.0,31,30.43,10.0,NNW,11.5,-,N/A,,Clear,330,2013-02-10 14:53:00
9:59 AM,24.8,-4.0,28,30.37,1.8,NNW,13.8,-,N/A,,Haze,330,2013-02-10 14:59:00
10:14 AM,24.8,-2.2,31,30.37,10.0,NNW,10.4,19.6,N/A,,Clear,340,2013-02-10 15:14:00
10:53 AM,27.0,-2.0,29,30.43,10.0,NNW,10.4,-,N/A,,Clear,330,2013-02-10 15:53:00
11:53 AM,30.0,-0.9,27,30.43,10.0,NNW,12.7,-,N/A,,Clear,340,2013-02-10 16:53:00
12:53 PM,32.0,1.0,27,30.40,10.0,NNW,6.9,-,N/A,,Clear,340,2013-02-10 17:53:00
1:53 PM,34.0,-0.9,23,30.38,10.0,NNW,5.8,-,N/A,,Clear,340,2013-02-10 18:53:00
2:53 PM,35.1,1.0,24,30.37,10.0,North,5.8,-,N/A,,Clear,350,2013-02-10 19:53:00
3:53 PM,35.1,-0.0,23,30.38,10.0,NNW,4.6,-,N/A,,Clear,330,2013-02-10 20:53:00
4:53 PM,30.0,3.9,33,30.38,10.0,North,6.9,-,N/A,,Partly Cloudy,360,2013-02-10 21:53:00
5:53 PM,25.0,7.0,46,30.40,10.0,NNE,3.5,-,N/A,,Clear,20,2013-02-10 22:53:00
6:53 PM,21.0,7.0,55,30.40,10.0,Calm,Calm,-,N/A,,Clear,0,2013-02-10 23:53:00
7:53 PM,19.9,7.0,57,30.40,10.0,Calm,Calm,-,N/A,,Clear,0,2013-02-11 00:53:00
8:53 PM,16.0,6.1,65,30.40,10.0,Calm,Calm,-,N/A,,Clear,0,2013-02-11 01:53:00
9:53 PM,16.0,5.0,62,30.39,10.0,Calm,Calm,-,N/A,,Clear,0,2013-02-11 02:53:00
10:53 PM,12.9,5.0,71,30.39,10.0,Calm,Calm,-,N/A,,Clear,0,2013-02-11 03:53:00
11:53 PM,12.0,3.9,70,30.39,10.0,Calm,Calm,-,N/A,,Clear,0,2013-02-11 04:53:00